sat.trackr.live / text

‹ back to catalog

IRIDE-MS2-HEO-13

NORAD 68985 · 2026-100F

PAYLOAD ACTIVE UNKNOWN

§ Identity

Operator
Country
IT
Launch date
2026-05-03
Launch site
AFWTR
Launch vehicle
Mass (kg)
RCS (m²)

External: N2YO · Heavens-Above · Gunter

§ Orbital elements

Epoch: 2026-09-19T10:54:27.910080Z

Period
96.54 min
Inclination
97.7220°
Eccentricity
0.0003328
Mean motion
14.91674735 rev/d
Perigee alt
590.4 km
Apogee alt
595.0 km
Semi-major
6,970.9 km
B*
2.4549e-4
RAAN
158.0874°
Arg perigee
129.3578°
Mean anomaly
230.7936°
Rev number
2,075

§ Raw data

IRIDE-MS2-HEO-131 68985U 26100F   26262.45448970  .00002413  00000+0  24549-3 0  99902 68985  97.7220 158.0874 0003328 129.3578 230.7936 14.91674735 20750

JSON: /api/v1/satellites/68985 · /tle

For live sub-satellite position, see the globe view (requires WebGL).

§ Visibility from observer

Set your observer location to see the next 7 days of passes ≥ 10°. The values pass through the URL so the page stays shareable.

No JS? Fill the form by hand. The geolocation button needs JavaScript.